Location: Middelsbur
(53.6609°N, 7.5020°E)
Time: 23:23:31
(UTC+00:00)

Iridium 2 - Pass Details

Date: 06 July 2020
Orbit: 503 x 516 km, 85.5° (Epoch: 14 August)

Event Time Altitude Azimuth Distance (km) Brightness Sun altitude
Rises 22:17:05 0° 352° (N) 2,654 9.2 -11.9°
Reaches altitude 10° 22:19:14 10° 351° (N) 1,762 7.9 -12.0°
Maximum altitude 22:23:04 73° 267° (W) 547 3.8 -12.2°
Enters shadow 22:25:49 18° 184° (S) 1,314 5.2 -12.3°
